{"data":{"norad_id":49056,"epoch":"2026-09-19T18:54:32.667840Z","epoch_age_seconds":83774,"freshness":"FRESH","line1":"1 49056U 21069B   26262.78787810  .00000122  00000+0  00000+0 0  9999","line2":"2 49056   0.0195  68.9062 0002304 102.8425 158.2863  1.00272254 18873","mean_motion":1.00272254,"eccentricity":0.0002304,"inclination_deg":0.0195,"raan_deg":68.9062,"arg_perigee_deg":102.8425,"mean_anomaly_deg":158.2863,"bstar":0,"rev_number":1887,"period_min":1436.0901870222,"perigee_km":35776.748760026,"apogee_km":35796.178207929,"semimajor_km":42164.600483978,"source":"CELESTRAK","updated_at":"2026-09-20T09:00:35.298887Z"}}